[[{"header":{"parameterUnit":"m.s-1","parameterCategory":1,"la1":30.2991,"la2":30.254,"lo1":-89.0895,"lo2":-89.0444,"dy":0.0017,"dx":0.0017,"nx":28,"ny":28,"refTime":"2024-07-08T09:00:00:Z","depth":0,"parameterNumber":2,"parameterNumberName":"U-component_of_WINDS"},"data":[0,0,0,0,0,0,0,0,0,0,0,0,0,0,0,0,0,0,0,0,0,0,0,0,0,0,0,0,0,0,0,0,0,0,0,0,0,0,0,0,0,0,0,0,0,0,0,0,0,0,0,0,0,0,0,0,0,0,4.1206,4.1207,0,4.1261,4.1262,4.1262,4.1199,4.1197,4.1194,4.1192,4.125,4.1254,4.1257,0,0,0,0,0,0,0,0,0,0,0,0,0,4.1049,4.1053,4.1206,4.1207,4.1207,4.1261,4.1262,4.1262,4.1199,4.1196,4.1194,4.1191,4.1249,4.1253,4.1258,0,0,0,0,0,0,0,0,0,0,0,0,0,4.1112,4.1054,4.1206,4.1182,4.1181,4.1261,4.1262,4.1263,4.12,4.1196,4.1193,4.1189,4.1247,4.1253,4.1258,4.1365,0,0,4.1275,4.1278,0,0,0,0,0,0,0,0,4.1109,4.1118,4.1185,4.1184,4.1182,4.1219,4.1228,4.1297,4.1201,4.1193,4.1192,4.1188,4.1243,4.1249,4.1267,4.1367,4.137,4.1276,4.1279,4.1282,4.1283,0,0,0,0,0,0,0,4.1105,4.1115,4.1228,4.1186,4.1184,4.117,4.1175,4.1241,4.1237,4.1193,4.1189,4.1196,4.1241,4.1261,4.1268,4.1371,4.1276,4.1281,4.1284,4.1287,4.1565,4.1569,0,0,0,0,0,0,4.1103,4.1112,4.1226,4.1229,4.1136,4.1176,4.1181,4.1211,4.1236,4.1237,4.1199,4.1193,4.1254,4.1261,4.1269,4.1397,4.1282,4.1287,4.129,4.1561,4.1566,4.157,0,0,0,0,0,0,4.1099,4.1113,4.1224,4.117,4.1183,4.1182,4.1216,4.1214,4.1234,4.1241,4.124,4.122,4.1251,4.1261,4.1342,4.1398,4.129,4.1295,4.1556,4.1562,4.1568,4.1653,0,0,0,0,0,0,4.1095,4.1113,4.1152,4.1171,4.1186,4.1294,4.122,4.1218,4.1244,4.1236,4.126,4.1261,4.1249,4.1334,4.1348,4.1404,4.1299,4.1551,4.1559,4.1566,4.1645,4.1661,4.1675,0,0,0,0,0,4.109,4.1173,4.1154,4.1168,4.1235,4.1298,4.1306,4.1291,4.1249,4.1289,4.1294,4.126,4.139,4.1343,4.1358,4.1417,4.1547,4.1557,4.1565,4.1638,4.1658,4.1674,0,0,0,0,0,0,4.116,4.1175,4.1154,4.1246,4.1271,4.1287,4.1337,4.1312,4.1349,4.1341,4.1321,4.1327,4.1413,4.1423,4.137,4.1523,4.1462,4.1474,4.1512,4.1531,4.1546,4.1541,4.1304,0,0,0,0,0,4.1186,4.1235,4.1246,4.1326,4.134,4.1337,4.1364,4.135,4.1375,4.1386,4.1396,4.1423,4.147,4.1501,4.1545,4.1647,4.1652,4.1695,4.171,4.1722,4.1733,4.179,4.181,4.16,4.1599,4.1599,0,0,4.1241,4.1255,4.1287,4.1341,4.1359,4.1412,4.1346,4.1404,4.1443,4.1394,4.1471,4.1481,4.1509,4.1602,4.1643,4.1613,4.1793,4.1734,4.1743,4.1747,4.1801,4.1821,4.1839,4.1606,4.1605,4.1604,0,0,4.1367,4.1382,4.1451,4.1472,4.15,4.1498,4.1515,4.1535,4.154,4.1617,4.1582,4.1629,4.171,4.1733,4.1755,4.1894,4.1865,4.1909,4.1986,4.2042,4.2059,4.2074,4.2124,4.2143,4.192,4.192,4.192,0,4.1431,4.1508,4.149,4.1552,4.1577,4.1537,4.1608,4.1629,4.167,4.1689,4.1655,4.1758,4.1774,4.1872,4.1907,4.1926,4.1946,4.1906,4.2058,4.2072,4.2086,4.2134,4.2153,4.1926,4.1925,4.1924,4.1924,0,4.1586,4.164,4.1693,4.1735,4.1767,4.1833,4.1827,4.1862,4.1847,4.1849,4.1929,4.1948,4.1996,4.2018,4.2003,4.2116,4.2096,4.2061,4.1999,4.2111,4.2156,4.2175,4.1933,4.1931,4.193,4.1928,0,0,4.1754,4.1788,4.1808,4.1828,4.1858,4.19,4.1966,4.2013,4.2044,4.2075,4.213,4.2202,4.217,4.2195,4.2183,4.2232,4.2344,4.2191,4.2191,4.2219,4.247,4.2497,4.2518,4.2325,4.2329,4.2331,4.2468,0,4.1881,4.1994,4.1982,4.209,4.2141,4.2106,4.2164,4.2189,4.2194,4.224,4.2245,4.2296,4.225,4.2265,4.2312,4.232,4.2394,4.231,4.2377,4.238,4.2371,4.2542,4.2569,4.2697,4.2486,4.2489,4.2491,0,4.2043,4.2081,4.2194,4.222,4.2241,4.2292,4.2336,4.238,4.241,4.241,4.244,4.2421,4.2489,4.2427,4.2522,4.2465,4.2493,4.2501,4.2506,4.2511,4.2442,4.2552,4.2737,4.2757,4.2518,4.2516,4.2514,0,4.2156,4.2235,4.2314,4.2332,4.2363,4.2401,4.2416,4.2442,4.2472,4.2511,4.2531,4.2577,4.2603,4.264,4.2635,4.259,4.2732,4.2669,4.2735,4.2735,4.2765,4.2763,4.2958,4.2784,4.2783,4.2783,4.2782,0,4.2298,4.2369,4.2365,4.2413,4.2493,4.248,4.256,4.257,4.2595,4.2646,4.2619,4.2667,4.2657,4.2706,4.2703,4.2783,4.2794,4.2797,4.2795,4.28,4.2799,4.2816,4.2807,4.2788,4.2787,4.2786,4.2785,0,4.2436,4.2436,4.252,4.2544,4.2552,4.2609,4.263,4.2677,4.2681,4.2746,4.2761,4.2767,4.2824,4.2823,4.2887,4.2885,4.2984,4.2971,4.2973,4.2971,4.3037,4.3031,4.3249,4.3278,4.3085,4.3087,4.3088,0,4.2526,4.258,4.2611,4.2643,4.2661,4.2713,4.2745,4.2736,4.277,4.281,4.2853,4.2907,4.295,4.3043,4.3054,4.3104,4.3093,4.3167,4.31,4.3104,4.3095,4.3092,4.3098,4.3179,4.3181,4.3183,4.3184,0,4.2687,4.2686,4.2731,4.2779,4.2817,4.2854,4.2887,4.2916,4.2911,4.2951,4.3009,4.3043,4.311,4.3165,4.3214,4.3231,4.3208,4.3206,4.3223,4.3228,4.3227,4.3229,4.3009,4.32,4.3198,4.3197,4.3196,4.3196,4.2804,4.2851,4.2881,4.2934,4.2959,4.2993,4.3038,4.3049,4.3097,4.3151,4.3144,4.321,4.3241,4.3305,4.3326,4.3379,4.3353,4.3378,4.3385,4.3391,4.3399,4.322,4.3387,4.3387,4.3386,4.3386,4.3386,0,4.2964,4.2982,4.3031,4.308,4.3123,4.3099,4.3136,4.3173,4.3231,4.3263,4.3307,4.3375,4.343,4.3447,4.35,4.3538,4.3529,4.3553,4.3549,4.3554,4.3419,4.3398,4.3559,4.3559,4.3559,4.3559,4.3559,4.3559,4.3052,4.3131,4.3134,4.3227,4.3245,4.3309,4.3333,4.3364,4.339,4.3467,4.3513,4.3524,4.355,4.3606,4.3656,4.3659,4.368,4.3708,4.3708,4.3581,4.3563,4.3547,4.3527,4.3713,4.3713,4.3839,4.384,4.3841]},{"header":{"parameterUnit":"m.s-1","parameterCategory":1,"la1":30.2991,"la2":30.254,"lo1":-89.0895,"lo2":-89.0444,"dy":0.0017,"dx":0.0017,"nx":28,"ny":28,"refTime":"2024-07-08T09:00:00:Z","depth":0,"parameterNumber":3,"parameterNumberName":"V-component_of_WINDS"},"data":[0,0,0,0,0,0,0,0,0,0,0,0,0,0,0,0,0,0,0,0,0,0,0,0,0,0,0,0,0,0,0,0,0,0,0,0,0,0,0,0,0,0,0,0,0,0,0,0,0,0,0,0,0,0,0,0,0,0,7.9795,7.9797,0,7.9964,7.9965,7.9967,7.9976,7.9975,7.9973,7.9971,8.0132,8.0138,8.0144,0,0,0,0,0,0,0,0,0,0,0,0,0,7.9468,7.9474,7.9795,7.9797,7.9799,7.9963,7.9966,7.9968,7.9977,7.9974,7.9972,7.997,8.013,8.0137,8.0144,0,0,0,0,0,0,0,0,0,0,0,0,0,7.962,7.9476,7.9794,7.9824,7.9828,7.9963,7.9966,7.9968,7.9977,7.9974,7.9972,7.9969,8.0127,8.0136,8.0145,8.0259,0,0,8.0173,8.0177,0,0,0,0,0,0,0,0,7.9612,7.9632,7.9817,7.9822,7.9827,7.9946,7.9909,8.0065,7.9978,7.992,7.9971,7.9967,8.0072,8.0085,8.0123,8.0266,8.0273,8.0174,8.0179,8.0183,8.0186,0,0,0,0,0,0,0,7.9601,7.9625,7.9861,7.982,7.9826,7.9824,7.9843,7.9939,8.0009,7.9925,7.9926,7.9947,8.0073,8.0114,8.0126,8.0275,8.0173,8.0182,8.0187,8.0191,8.0519,8.0522,0,0,0,0,0,0,7.9587,7.9616,7.9856,7.9866,7.9711,7.9832,7.9853,7.9911,8.0009,8.0021,7.9949,7.9946,8.01,8.0116,8.0132,8.0271,8.0183,8.0192,8.0197,8.0516,8.052,8.0523,0,0,0,0,0,0,7.958,7.9608,7.9849,7.9742,7.9772,7.9841,7.9906,7.9915,7.9956,8.0027,8.0038,7.9978,8.0098,8.0119,8.0228,8.0277,8.0196,8.0204,8.0512,8.0517,8.0522,8.055,0,0,0,0,0,0,7.957,7.9606,7.9652,7.9743,7.9778,7.9945,7.9909,7.9921,7.9973,7.9971,8.0057,8.0068,8.0097,8.0214,8.0237,8.0288,8.0211,8.0508,8.0514,8.052,8.0545,8.0556,8.0565,0,0,0,0,0,7.9559,7.9651,7.9655,7.9683,7.9839,7.9948,7.9968,8.0003,7.9977,8.0023,8.0068,8.0066,8.0268,8.0225,8.0251,8.0305,8.0505,8.0512,8.052,8.0541,8.0554,8.0564,0,0,0,0,0,0,7.956,7.9664,7.9669,7.9794,7.9863,7.995,8.0009,8.0015,8.009,8.0085,8.0121,8.014,8.0248,8.0287,8.0238,8.042,8.0383,8.0396,8.039,8.0403,8.0412,8.04,8.0219,0,0,0,0,0,7.9576,7.9661,7.9744,7.9847,7.9881,7.9939,7.9988,8.001,8.0081,8.0109,8.0162,8.0228,8.0306,8.0356,8.0432,8.0551,8.0568,8.0601,8.061,8.0618,8.0628,8.0693,8.0708,8.0548,8.0547,8.0547,0,0,7.9608,7.9675,7.9725,7.9849,7.9905,7.9988,7.9963,8.0052,8.0113,8.0121,8.0228,8.0269,8.0344,8.0458,8.0511,8.0494,8.0677,8.0627,8.0633,8.0639,8.0702,8.0717,8.073,8.0552,8.0552,8.0551,0,0,7.9708,7.9768,7.986,7.9918,8.0004,8.0042,8.0064,8.015,8.0179,8.0288,8.0295,8.0366,8.05,8.0554,8.0599,8.072,8.072,8.0743,8.0793,8.0855,8.0868,8.0879,8.0921,8.0936,8.0753,8.0753,8.0753,0,7.9736,7.9866,7.9905,7.9996,8.0049,8.0063,8.0155,8.0207,8.0311,8.0346,8.0327,8.0496,8.0548,8.0674,8.0704,8.074,8.0764,8.0733,8.0863,8.0875,8.0886,8.0927,8.0943,8.0755,8.0755,8.0755,8.0755,0,7.9895,7.9984,8.0047,8.0153,8.0213,8.0303,8.0353,8.0408,8.0423,8.0462,8.0571,8.0634,8.0723,8.0754,8.0769,8.0882,8.087,8.0856,8.082,8.0903,8.0942,8.0958,8.0759,8.0758,8.0757,8.0757,0,0,8.0001,8.0129,8.0151,8.0199,8.0295,8.0363,8.0452,8.0543,8.0589,8.066,8.0734,8.0848,8.0837,8.0888,8.0908,8.0963,8.1054,8.0943,8.0945,8.0961,8.1181,8.1191,8.1208,8.1055,8.1058,8.106,8.1175,0,8.0112,8.0276,8.0314,8.0453,8.0535,8.055,8.0627,8.0692,8.073,8.0802,8.0842,8.0922,8.0902,8.0933,8.0988,8.1031,8.1098,8.1023,8.112,8.1124,8.1102,8.1229,8.1239,8.1344,8.119,8.1193,8.1195,0,8.0263,8.0343,8.0491,8.0577,8.0613,8.0682,8.0768,8.0838,8.0911,8.0934,8.0992,8.1007,8.1096,8.1056,8.1178,8.1127,8.1168,8.1195,8.12,8.121,8.1164,8.1241,8.1378,8.1394,8.1219,8.1217,8.1215,0,8.0325,8.0469,8.0576,8.0617,8.072,8.0768,8.0812,8.0883,8.0935,8.1008,8.1042,8.1124,8.1168,8.1229,8.1264,8.1232,8.1383,8.1346,8.1403,8.1402,8.1434,8.1431,8.1579,8.1461,8.1461,8.1461,8.146,0,8.0445,8.0535,8.0606,8.0672,8.0772,8.0813,8.091,8.0953,8.1016,8.1088,8.1104,8.117,8.1213,8.1284,8.1312,8.1408,8.1427,8.1447,8.1453,8.1446,8.1443,8.1473,8.1466,8.1465,8.1464,8.1463,8.1462,0,8.0531,8.0583,8.0701,8.079,8.0814,8.0883,8.0957,8.102,8.1059,8.1149,8.1172,8.1232,8.1317,8.1358,8.1462,8.1481,8.1589,8.1591,8.1566,8.1569,8.1623,8.1617,8.1795,8.182,8.1686,8.1687,8.1688,0,8.0604,8.0675,8.0772,8.0824,8.087,8.0952,8.1007,8.1049,8.1104,8.1192,8.1243,8.133,8.1402,8.1535,8.1585,8.1664,8.1667,8.1724,8.1679,8.1669,8.1668,8.1663,8.167,8.1732,8.1733,8.1734,8.1735,0,8.0728,8.0751,8.0831,8.092,8.0985,8.1056,8.1126,8.1166,8.1218,8.1279,8.1368,8.1424,8.1532,8.1616,8.1699,8.174,8.1746,8.1749,8.1767,8.1759,8.1742,8.1752,8.1588,8.1745,8.1744,8.1743,8.1743,8.1742,8.081,8.0873,8.0952,8.104,8.1098,8.1163,8.1226,8.1274,8.1351,8.1445,8.1464,8.1558,8.1627,8.174,8.1784,8.1855,8.1842,8.1867,8.1874,8.1879,8.1882,8.1732,8.187,8.187,8.187,8.187,8.187,0,8.0934,8.0987,8.1068,8.1167,8.1235,8.1239,8.1316,8.1372,8.1456,8.1522,8.1593,8.1695,8.1777,8.1834,8.1916,8.1962,8.1967,8.1983,8.1979,8.1988,8.1889,8.1866,8.1978,8.1978,8.1978,8.1978,8.1978,8.1978,8.1007,8.1115,8.1146,8.128,8.133,8.1426,8.147,8.1528,8.1582,8.1696,8.1766,8.1804,8.1866,8.1954,8.2028,8.2042,8.2071,8.2087,8.2101,8.2007,8.1995,8.1985,8.1963,8.2093,8.2094,8.2195,8.2196,8.2196]}]]